TimeEST,TemperatureF,Dew PointF,Humidity,Sea Level PressureIn,VisibilityMPH,Wind Direction,Wind SpeedMPH,Gust SpeedMPH,PrecipitationIn,Events,Conditions,WindDirDegrees,DateUTC
12:01 AM,15.1,10.0,80,30.24,5.0,North,12.7,-,0.00,Snow,Light Snow,10,2014-03-03 05:01:00
12:53 AM,15.1,9.0,77,30.28,10.0,North,12.7,-,0.00,,Scattered Clouds,10,2014-03-03 05:53:00
1:22 AM,15.1,9.0,77,30.25,10.0,North,15.0,-,N/A,,Mostly Cloudy,10,2014-03-03 06:22:00
1:53 AM,14.0,8.1,77,30.28,10.0,North,16.1,-,N/A,,Scattered Clouds,10,2014-03-03 06:53:00
2:24 AM,12.9,3.9,67,30.25,10.0,NNE,17.3,-,N/A,,Mostly Cloudy,20,2014-03-03 07:24:00
2:34 AM,12.9,3.9,67,30.24,10.0,NNE,17.3,-,N/A,,Scattered Clouds,20,2014-03-03 07:34:00
2:53 AM,12.9,3.9,67,30.28,10.0,North,13.8,-,N/A,,Partly Cloudy,10,2014-03-03 07:53:00
3:46 AM,12.0,3.9,70,30.25,10.0,North,15.0,20.7,N/A,,Mostly Cloudy,10,2014-03-03 08:46:00
3:53 AM,12.0,3.9,70,30.27,10.0,NNE,13.8,-,N/A,,Mostly Cloudy,20,2014-03-03 08:53:00
4:53 AM,12.0,3.9,70,30.28,10.0,NNE,11.5,-,N/A,,Overcast,30,2014-03-03 09:53:00
5:53 AM,12.0,5.0,73,30.32,6.0,NNE,11.5,-,N/A,,Haze,20,2014-03-03 10:53:00
6:21 AM,12.0,6.1,77,30.28,6.0,NNE,12.7,-,N/A,,Haze,20,2014-03-03 11:21:00
6:28 AM,12.0,6.1,77,30.28,8.0,NNE,11.5,-,N/A,,Mostly Cloudy,30,2014-03-03 11:28:00
6:53 AM,12.9,6.1,74,30.32,8.0,NNE,12.7,-,N/A,,Overcast,30,2014-03-03 11:53:00
7:53 AM,12.0,6.1,77,30.36,7.0,NE,9.2,-,N/A,,Overcast,40,2014-03-03 12:53:00
8:53 AM,12.9,5.0,71,30.40,10.0,NNE,11.5,-,0.00,,Overcast,30,2014-03-03 13:53:00
9:53 AM,12.9,3.9,67,30.42,10.0,NNE,12.7,-,N/A,,Scattered Clouds,30,2014-03-03 14:53:00
10:53 AM,15.1,3.9,61,30.43,10.0,NNE,12.7,-,N/A,,Clear,30,2014-03-03 15:53:00
11:53 AM,17.1,1.9,52,30.43,10.0,NNE,11.5,-,N/A,,Clear,30,2014-03-03 16:53:00
12:53 PM,18.0,1.9,50,30.42,10.0,ENE,13.8,-,N/A,,Clear,60,2014-03-03 17:53:00
1:53 PM,19.9,3.0,48,30.41,10.0,NNE,13.8,19.6,N/A,,Clear,20,2014-03-03 18:53:00
2:53 PM,21.0,3.9,48,30.42,10.0,North,9.2,-,N/A,,Clear,10,2014-03-03 19:53:00
3:53 PM,21.9,1.9,42,30.41,10.0,NE,9.2,-,N/A,,Clear,40,2014-03-03 20:53:00
4:53 PM,21.0,-0.0,40,30.43,10.0,ENE,10.4,-,N/A,,Clear,60,2014-03-03 21:53:00
5:53 PM,19.9,-0.0,42,30.44,10.0,ENE,8.1,-,N/A,,Clear,60,2014-03-03 22:53:00
6:53 PM,17.1,-0.9,45,30.44,10.0,East,5.8,-,N/A,,Clear,80,2014-03-03 23:53:00
7:53 PM,15.1,-2.0,47,30.43,10.0,ENE,5.8,-,N/A,,Clear,60,2014-03-04 00:53:00
8:53 PM,14.0,-2.0,49,30.42,10.0,East,6.9,-,N/A,,Clear,80,2014-03-04 01:53:00
9:53 PM,14.0,-0.9,52,30.43,10.0,East,6.9,-,N/A,,Clear,80,2014-03-04 02:53:00
10:53 PM,12.9,-0.9,54,30.43,10.0,ENE,3.5,-,N/A,,Clear,70,2014-03-04 03:53:00
11:53 PM,12.9,-0.9,54,30.40,10.0,East,6.9,-,N/A,,Clear,100,2014-03-04 04:53:00